This is the latest recevied weather packets stored in our database for station/object K5FEP. If no packets are shown the sender has not sent any weather packets the latest 10 day(s).
| Time | Temp. | Humidity | Pressure | Rain* | Wind** | Luminosity | Snow |
|---|---|---|---|---|---|---|---|
| 1777410309 | 17.78° C | 76% | 1016.5 hPa | 0 mm | - | 151 W/m² | - |
| 1777410004 | 17.78° C | 74% | 1016.6 hPa | 0 mm | - | 179 W/m² | - |
| 1777409699 | 17.78° C | 74% | 1016.8 hPa | 0 mm | - | 189 W/m² | - |
| 1777409395 | 17.78° C | 73% | 1016.8 hPa | 0 mm | - | 191 W/m² | - |
| 1777409091 | 17.22° C | 76% | 1016.7 hPa | 0 mm | - | 239 W/m² | - |
| 1777408787 | 17.22° C | 76% | 1016.9 hPa | 0 mm | - | 236 W/m² | - |
| 1777408483 | 17.22° C | 76% | 1017 hPa | 0 mm | - | 204 W/m² | - |
| 1777408178 | 16.67° C | 78% | 1017.2 hPa | 0 mm | - | 172 W/m² | - |
| 1777407873 | 16.67° C | 76% | 1017.2 hPa | 0 mm | - | 143 W/m² | - |
| 1777407572 | 17.22° C | 77% | 1017.4 hPa | 0 mm | - | 160 W/m² | - |
| 1777407271 | 16.67° C | 77% | 1017.4 hPa | 0 mm | - | 158 W/m² | - |
| 1777406965 | 16.67° C | 76% | 1017.5 hPa | 0 mm | - | 191 W/m² | - |
| 1777406665 | 16.67° C | 77% | 1017.5 hPa | 0 mm | - | 155 W/m² | - |
| 1777406361 | 16.67° C | 76% | 1017.5 hPa | 0 mm | - | 221 W/m² | - |
| 1777406061 | 16.67° C | 76% | 1017.6 hPa | 0 mm | - | 107 W/m² | - |
| 1777405758 | 17.22° C | 75% | 1017.6 hPa | 0 mm | - | 245 W/m² | - |
| 1777405454 | 16.67° C | 76% | 1017.7 hPa | 0 mm | - | 211 W/m² | - |
| 1777405152 | 16.67° C | 75% | 1017.4 hPa | 0 mm | - | 317 W/m² | - |
| 1777404849 | 16.67° C | 77% | 1017.8 hPa | 0 mm | - | 334 W/m² | - |
| 1777404547 | 16.11° C | 78% | 1017.9 hPa | 0 mm | - | 208 W/m² | - |
| 1777404242 | 16.11° C | 79% | 1018 hPa | 0 mm | - | 289 W/m² | - |
| 1777403939 | 16.11° C | 79% | 1017.9 hPa | 0 mm | - | 176 W/m² | - |
| 1777403638 | 16.11° C | 79% | 1018 hPa | 0 mm | - | 60 W/m² | - |
| 1777403333 | 16.11° C | 79% | 1018.4 hPa | 0 mm | - | 135 W/m² | - |
| 1777403033 | 15.56° C | 79% | 1018.2 hPa | 0 mm | - | 105 W/m² | - |
* Rain latest hour (hover to see other rain measurements)
** Current wind speed in m/s (hover to see current wind gust speed)